Time,TemperatureF,DewpointF,PressureIn,WindDirection,WindDirectionDegrees,WindSpeedMPH,WindSpeedGustMPH,Humidity,HourlyPrecipIn,Conditions,Clouds,dailyrainin,SoftwareType,DateUTC
2013-01-19 00:00:00,8.3,4.5,30.25,WNW,297,2.0,6.0,84,0.00,,,0.00,Wunderground v.1.15,2013-01-19 09:00:00,
2013-01-19 00:10:00,8.3,4.5,30.24,WNW,296,3.0,3.0,84,0.00,,,0.00,Wunderground v.1.15,2013-01-19 09:10:00,
2013-01-19 00:20:00,8.5,4.7,30.24,WNW,290,2.0,6.0,84,0.00,,,0.00,Wunderground v.1.15,2013-01-19 09:20:00,
2013-01-19 00:30:00,8.5,4.7,30.24,WNW,289,3.0,3.0,84,0.00,,,0.00,Wunderground v.1.15,2013-01-19 09:30:00,
2013-01-19 00:40:00,8.6,4.8,30.24,WNW,284,2.0,2.0,84,0.00,,,0.00,Wunderground v.1.15,2013-01-19 09:40:00,
2013-01-19 00:50:00,8.6,4.8,30.24,West,281,3.0,6.0,84,0.00,,,0.00,Wunderground v.1.15,2013-01-19 09:50:00,
2013-01-19 01:00:00,8.6,4.8,30.24,NW,308,4.0,6.0,84,0.00,,,0.00,Wunderground v.1.15,2013-01-19 10:00:00,
2013-01-19 01:10:00,8.8,5.0,30.25,WNW,296,2.0,6.0,84,0.00,,,0.00,Wunderground v.1.15,2013-01-19 10:10:00,
2013-01-19 01:20:00,8.9,5.1,30.25,WNW,296,2.0,2.0,84,0.00,,,0.00,Wunderground v.1.15,2013-01-19 10:20:00,
2013-01-19 01:30:00,9.0,5.4,30.25,WNW,284,3.0,6.0,85,0.00,,,0.00,Wunderground v.1.15,2013-01-19 10:30:00,
2013-01-19 01:40:00,9.1,5.2,30.24,WNW,294,3.0,6.0,84,0.00,,,0.00,Wunderground v.1.15,2013-01-19 10:40:00,
2013-01-19 01:50:00,9.2,5.3,30.24,NNW,327,4.0,4.0,84,0.00,,,0.00,Wunderground v.1.15,2013-01-19 10:50:00,
2013-01-19 02:00:00,9.4,5.5,30.24,WNW,301,4.0,4.0,84,0.00,,,0.00,Wunderground v.1.15,2013-01-19 11:00:00,
2013-01-19 02:10:00,9.5,5.6,30.24,NW,315,4.0,6.0,84,0.00,,,0.00,Wunderground v.1.15,2013-01-19 11:10:00,
2013-01-19 03:50:00,10.3,6.7,30.25,WNW,295,3.0,7.0,85,0.00,,,0.00,Wunderground v.1.15,2013-01-19 12:50:00,
2013-01-19 04:00:00,10.5,6.9,30.24,WNW,294,4.0,4.0,85,0.00,,,0.00,Wunderground v.1.15,2013-01-19 13:00:00,
2013-01-19 04:10:00,10.6,7.0,30.24,WNW,292,4.0,4.0,85,0.00,,,0.00,Wunderground v.1.15,2013-01-19 13:10:00,
2013-01-19 04:20:00,10.7,7.1,30.24,NW,314,4.0,6.0,85,0.00,,,0.00,Wunderground v.1.15,2013-01-19 13:20:00,
2013-01-19 04:30:00,10.8,7.2,30.24,NW,322,4.0,6.0,85,0.00,,,0.00,Wunderground v.1.15,2013-01-19 13:30:00,
2013-01-19 04:40:00,10.9,7.3,30.23,WNW,298,4.0,6.0,85,0.00,,,0.00,Wunderground v.1.15,2013-01-19 13:40:00,
2013-01-19 04:50:00,11.0,7.4,30.24,NW,319,4.0,6.0,85,0.00,,,0.00,Wunderground v.1.15,2013-01-19 13:50:00,
2013-01-19 05:00:00,11.0,7.4,30.24,NNW,333,3.0,3.0,85,0.00,,,0.00,Wunderground v.1.15,2013-01-19 14:00:00,
2013-01-19 05:10:00,10.9,7.3,30.24,WNW,293,4.0,8.0,85,0.00,,,0.00,Wunderground v.1.15,2013-01-19 14:10:00,
2013-01-19 05:20:00,10.9,7.3,30.23,NW,308,4.0,8.0,85,0.00,,,0.00,Wunderground v.1.15,2013-01-19 14:20:00,
2013-01-19 05:30:00,10.9,7.3,30.23,NW,309,3.0,3.0,85,0.00,,,0.00,Wunderground v.1.15,2013-01-19 14:30:00,
2013-01-19 05:40:00,11.0,7.4,30.23,WNW,303,3.0,3.0,85,0.00,,,0.00,Wunderground v.1.15,2013-01-19 14:40:00,
2013-01-19 05:50:00,11.1,7.5,30.23,WNW,289,3.0,8.0,85,0.00,,,0.00,Wunderground v.1.15,2013-01-19 14:50:00,
2013-01-19 06:00:00,11.3,7.7,30.23,WNW,294,3.0,7.0,85,0.00,,,0.00,Wunderground v.1.15,2013-01-19 15:00:00,
2013-01-19 06:10:00,11.5,7.9,30.23,NW,315,3.0,7.0,85,0.00,,,0.00,Wunderground v.1.15,2013-01-19 15:10:00,
2013-01-19 06:20:00,11.6,8.0,30.22,NNW,327,3.0,3.0,85,0.00,,,0.00,Wunderground v.1.15,2013-01-19 15:20:00,
2013-01-19 06:30:00,11.7,8.1,30.22,NW,312,2.0,2.0,85,0.00,,,0.00,Wunderground v.1.15,2013-01-19 15:30:00,
2013-01-19 06:40:00,11.8,7.9,30.22,NW,310,2.0,7.0,84,0.00,,,0.00,Wunderground v.1.15,2013-01-19 15:40:00,
2013-01-19 06:50:00,11.8,7.9,30.22,NW,315,3.0,3.0,84,0.00,,,0.00,Wunderground v.1.15,2013-01-19 15:50:00,
2013-01-19 07:00:00,11.9,8.0,30.22,NW,315,3.0,6.0,84,0.00,,,0.00,Wunderground v.1.15,2013-01-19 16:00:00,
2013-01-19 07:10:00,12.1,8.5,30.22,NW,306,3.0,3.0,85,0.00,,,0.00,Wunderground v.1.15,2013-01-19 16:10:00,
2013-01-19 07:20:00,12.2,8.6,30.22,WNW,294,3.0,6.0,85,0.00,,,0.00,Wunderground v.1.15,2013-01-19 16:20:00,
2013-01-19 07:30:00,12.2,8.6,30.21,NNW,348,3.0,6.0,85,0.00,,,0.00,Wunderground v.1.15,2013-01-19 16:30:00,
2013-01-19 07:40:00,12.3,8.7,30.21,NW,304,3.0,6.0,85,0.00,,,0.00,Wunderground v.1.15,2013-01-19 16:40:00,
2013-01-19 07:50:00,12.4,8.7,30.21,NW,312,3.0,6.0,85,0.00,,,0.00,Wunderground v.1.15,2013-01-19 16:50:00,
2013-01-19 08:00:00,12.6,8.7,30.21,WNW,284,4.0,7.0,84,0.00,,,0.00,Wunderground v.1.15,2013-01-19 17:00:00,
2013-01-19 08:10:00,12.8,9.1,30.21,NW,306,5.0,5.0,85,0.00,,,0.00,Wunderground v.1.15,2013-01-19 17:10:00,
2013-01-19 08:20:00,12.8,9.1,30.21,NW,310,4.0,4.0,85,0.00,,,0.00,Wunderground v.1.15,2013-01-19 17:20:00,
2013-01-19 08:30:00,13.0,9.3,30.21,WNW,293,3.0,7.0,85,0.00,,,0.00,Wunderground v.1.15,2013-01-19 17:30:00,
2013-01-19 08:40:00,13.0,9.3,30.22,WNW,294,3.0,7.0,85,0.00,,,0.00,Wunderground v.1.15,2013-01-19 17:40:00,
2013-01-19 08:50:00,12.9,9.5,30.22,NW,321,3.0,7.0,86,0.00,,,0.00,Wunderground v.1.15,2013-01-19 17:50:00,
2013-01-19 09:01:00,12.8,9.4,30.21,NW,326,4.0,4.0,86,0.00,,,0.00,Wunderground v.1.15,2013-01-19 18:01:00,
2013-01-19 09:20:00,13.1,9.7,30.21,WNW,302,4.0,4.0,86,0.00,,,0.00,Wunderground v.1.15,2013-01-19 18:20:00,
2013-01-19 09:30:00,13.4,10.0,30.21,NW,322,3.0,8.0,86,0.00,,,0.00,Wunderground v.1.15,2013-01-19 18:30:00,
2013-01-19 09:40:00,13.4,10.0,30.21,NW,313,3.0,8.0,86,0.00,,,0.00,Wunderground v.1.15,2013-01-19 18:40:00,
2013-01-19 09:50:00,13.6,10.5,30.21,NW,313,3.0,3.0,87,0.00,,,0.00,Wunderground v.1.15,2013-01-19 18:50:00,
2013-01-19 10:10:00,14.7,11.5,30.21,NW,311,4.0,7.0,87,0.00,,,0.00,Wunderground v.1.15,2013-01-19 19:10:00,
2013-01-19 10:20:00,14.9,11.7,30.22,WNW,297,3.0,7.0,87,0.00,,,0.00,Wunderground v.1.15,2013-01-19 19:20:00,
2013-01-19 10:30:00,14.9,11.7,30.21,NW,321,3.0,3.0,87,0.00,,,0.00,Wunderground v.1.15,2013-01-19 19:30:00,
2013-01-19 10:40:00,15.2,12.0,30.22,NW,310,3.0,7.0,87,0.00,,,0.00,Wunderground v.1.15,2013-01-19 19:40:00,
2013-01-19 10:50:00,15.4,12.5,30.21,NW,324,3.0,3.0,88,0.00,,,0.00,Wunderground v.1.15,2013-01-19 19:50:00,
2013-01-19 11:00:00,15.7,12.8,30.21,NW,313,3.0,7.0,88,0.00,,,0.00,Wunderground v.1.15,2013-01-19 20:00:00,
2013-01-19 11:10:00,15.8,12.6,30.22,NW,319,4.0,7.0,87,0.00,,,0.00,Wunderground v.1.15,2013-01-19 20:10:00,
2013-01-19 11:30:00,16.1,12.9,30.21,NNW,327,4.0,7.0,87,0.00,,,0.00,Wunderground v.1.15,2013-01-19 20:30:00,
2013-01-19 11:40:00,16.2,13.3,30.20,WNW,298,4.0,7.0,88,0.00,,,0.00,Wunderground v.1.15,2013-01-19 20:40:00,
2013-01-19 11:50:00,16.4,13.5,30.20,WNW,303,4.0,4.0,88,0.00,,,0.00,Wunderground v.1.15,2013-01-19 20:50:00,
2013-01-19 12:00:00,16.5,13.6,30.20,NW,311,5.0,9.0,88,0.00,,,0.00,Wunderground v.1.15,2013-01-19 21:00:00,
2013-01-19 12:10:00,16.6,13.7,30.20,NW,319,5.0,9.0,88,0.00,,,0.00,Wunderground v.1.15,2013-01-19 21:10:00,
2013-01-19 12:21:00,16.8,13.6,30.19,NNW,329,5.0,9.0,87,0.00,,,0.00,Wunderground v.1.15,2013-01-19 21:21:00,
2013-01-19 12:40:00,17.2,14.0,30.20,NW,315,5.0,9.0,87,0.00,,,0.00,Wunderground v.1.15,2013-01-19 21:40:00,
2013-01-19 13:00:00,17.6,14.4,30.18,NW,315,5.0,9.0,87,0.00,,,0.00,Wunderground v.1.15,2013-01-19 22:00:00,
2013-01-19 13:10:00,17.7,14.2,30.18,NW,314,5.0,9.0,86,0.00,,,0.00,Wunderground v.1.15,2013-01-19 22:10:00,
2013-01-19 13:20:00,17.9,14.4,30.18,NNW,332,5.0,9.0,86,0.00,,,0.00,Wunderground v.1.15,2013-01-19 22:20:00,
2013-01-19 13:30:00,17.9,14.4,30.17,WNW,296,6.0,6.0,86,0.00,,,0.00,Wunderground v.1.15,2013-01-19 22:30:00,
2013-01-19 13:40:00,17.9,14.4,30.17,NW,305,5.0,5.0,86,0.00,,,0.00,Wunderground v.1.15,2013-01-19 22:40:00,
2013-01-19 13:50:00,18.0,14.5,30.18,West,276,3.0,3.0,86,0.00,,,0.00,Wunderground v.1.15,2013-01-19 22:50:00,
2013-01-19 14:00:00,18.1,14.6,30.16,WNW,302,4.0,12.0,86,0.00,,,0.00,Wunderground v.1.15,2013-01-19 23:00:00,
2013-01-19 14:10:00,18.1,14.6,30.16,WNW,292,5.0,12.0,86,0.00,,,0.00,Wunderground v.1.15,2013-01-19 23:10:00,
2013-01-19 14:20:00,18.2,14.7,30.15,WNW,300,5.0,5.0,86,0.00,,,0.00,Wunderground v.1.15,2013-01-19 23:20:00,
2013-01-19 14:30:00,18.4,14.6,30.15,WNW,286,4.0,12.0,85,0.00,,,0.00,Wunderground v.1.15,2013-01-19 23:30:00,
2013-01-19 14:40:00,18.6,15.1,30.14,WNW,292,5.0,5.0,86,0.00,,,0.00,Wunderground v.1.15,2013-01-19 23:40:00,
2013-01-19 14:50:00,18.8,14.8,30.14,WNW,297,5.0,12.0,84,0.00,,,0.00,Wunderground v.1.15,2013-01-19 23:50:00,
2013-01-19 15:01:00,19.0,15.0,30.14,WNW,300,6.0,9.0,84,0.00,,,0.00,Wunderground v.1.15,2013-01-20 00:01:00,
2013-01-19 15:10:00,19.0,14.7,30.13,WNW,292,5.0,5.0,83,0.00,,,0.00,Wunderground v.1.15,2013-01-20 00:10:00,
2013-01-19 15:20:00,19.0,14.7,30.13,NW,313,5.0,9.0,83,0.00,,,0.00,Wunderground v.1.15,2013-01-20 00:20:00,
2013-01-19 15:30:00,19.0,14.7,30.13,WNW,286,5.0,9.0,83,0.00,,,0.00,Wunderground v.1.15,2013-01-20 00:30:00,
2013-01-19 15:40:00,19.0,14.7,30.12,NNW,328,5.0,9.0,83,0.00,,,0.00,Wunderground v.1.15,2013-01-20 00:40:00,
2013-01-19 15:50:00,19.1,14.5,30.11,NNW,334,6.0,6.0,82,0.00,,,0.00,Wunderground v.1.15,2013-01-20 00:50:00,
2013-01-19 16:10:00,19.1,14.8,30.10,WNW,303,6.0,9.0,83,0.00,,,0.00,Wunderground v.1.15,2013-01-20 01:10:00,
2013-01-19 16:20:00,19.0,15.0,30.10,NW,313,5.0,9.0,84,0.00,,,0.00,Wunderground v.1.15,2013-01-20 01:20:00,
2013-01-19 16:30:00,19.1,15.1,30.10,NW,315,5.0,5.0,84,0.00,,,0.00,Wunderground v.1.15,2013-01-20 01:30:00,
2013-01-19 16:40:00,19.1,14.8,30.09,WNW,290,5.0,9.0,83,0.00,,,0.00,Wunderground v.1.15,2013-01-20 01:40:00,
2013-01-19 17:00:00,19.2,14.9,30.09,WNW,292,6.0,6.0,83,0.00,,,0.00,Wunderground v.1.15,2013-01-20 02:00:00,
2013-01-19 17:10:00,19.2,15.2,30.09,WNW,298,5.0,9.0,84,0.00,,,0.00,Wunderground v.1.15,2013-01-20 02:10:00,
2013-01-19 17:20:00,19.2,15.4,30.08,NW,311,5.0,9.0,85,0.00,,,0.00,Wunderground v.1.15,2013-01-20 02:20:00,
2013-01-19 17:30:00,19.2,15.2,30.08,WNW,287,7.0,11.0,84,0.00,,,0.00,Wunderground v.1.15,2013-01-20 02:30:00,
2013-01-19 17:40:00,19.2,15.4,30.07,WNW,301,5.0,9.0,85,0.00,,,0.00,Wunderground v.1.15,2013-01-20 02:40:00,
2013-01-19 17:51:00,19.4,15.6,30.07,NNW,334,3.0,9.0,85,0.00,,,0.00,Wunderground v.1.15,2013-01-20 02:51:00,
2013-01-19 18:00:00,19.4,15.9,30.07,WNW,295,4.0,11.0,86,0.00,,,0.00,Wunderground v.1.15,2013-01-20 03:00:00,
2013-01-19 18:10:00,19.3,16.1,30.07,NW,325,4.0,4.0,87,0.00,,,0.00,Wunderground v.1.15,2013-01-20 03:10:00,
2013-01-19 18:20:00,19.3,16.3,30.06,NW,307,3.0,11.0,88,0.00,,,0.00,Wunderground v.1.15,2013-01-20 03:20:00,
2013-01-19 18:30:00,19.4,16.4,30.05,WNW,302,4.0,4.0,88,0.00,,,0.00,Wunderground v.1.15,2013-01-20 03:30:00,
2013-01-19 18:40:00,19.5,16.5,30.05,North,349,3.0,11.0,88,0.00,,,0.00,Wunderground v.1.15,2013-01-20 03:40:00,
2013-01-19 18:50:00,19.7,16.7,30.04,NNW,329,4.0,11.0,88,0.00,,,0.00,Wunderground v.1.15,2013-01-20 03:50:00,
2013-01-19 19:00:00,19.9,16.7,30.03,WNW,299,5.0,5.0,87,0.00,,,0.00,Wunderground v.1.15,2013-01-20 04:00:00,
2013-01-19 19:10:00,19.9,16.7,30.03,WNW,294,4.0,8.0,87,0.00,,,0.00,Wunderground v.1.15,2013-01-20 04:10:00,
2013-01-19 19:20:00,20.1,16.6,30.02,WNW,303,4.0,8.0,86,0.00,,,0.00,Wunderground v.1.15,2013-01-20 04:20:00,
2013-01-19 19:30:00,20.3,16.5,30.02,NW,311,4.0,4.0,85,0.00,,,0.00,Wunderground v.1.15,2013-01-20 04:30:00,
2013-01-19 19:40:00,20.3,16.5,30.02,NW,306,5.0,5.0,85,0.00,,,0.00,Wunderground v.1.15,2013-01-20 04:40:00,
2013-01-19 19:50:00,20.6,17.1,30.01,NW,313,4.0,4.0,86,0.00,,,0.00,Wunderground v.1.15,2013-01-20 04:50:00,
2013-01-19 20:01:00,20.8,17.3,30.01,NW,319,4.0,9.0,86,0.00,,,0.00,Wunderground v.1.15,2013-01-20 05:01:00,
2013-01-19 20:10:00,20.8,17.3,30.01,NNW,339,4.0,9.0,86,0.00,,,0.00,Wunderground v.1.15,2013-01-20 05:10:00,
2013-01-19 20:20:00,20.6,17.3,30.01,NW,313,4.0,4.0,87,0.00,,,0.00,Wunderground v.1.15,2013-01-20 05:20:00,
2013-01-19 20:30:00,20.5,17.2,30.02,NNW,344,3.0,3.0,87,0.00,,,0.00,Wunderground v.1.15,2013-01-20 05:30:00,
2013-01-19 20:40:00,20.5,17.5,30.02,NNW,345,2.0,2.0,88,0.00,,,0.00,Wunderground v.1.15,2013-01-20 05:40:00,
2013-01-19 20:50:00,20.6,17.6,30.01,NNW,329,3.0,9.0,88,0.00,,,0.00,Wunderground v.1.15,2013-01-20 05:50:00,
2013-01-19 21:00:00,20.6,17.6,30.01,NW,311,4.0,7.0,88,0.00,,,0.00,Wunderground v.1.15,2013-01-20 06:00:00,
2013-01-19 21:10:00,20.8,17.5,30.01,NW,313,2.0,7.0,87,0.00,,,0.00,Wunderground v.1.15,2013-01-20 06:10:00,
2013-01-19 21:20:00,20.9,17.6,30.00,NW,315,4.0,7.0,87,0.00,,,0.00,Wunderground v.1.15,2013-01-20 06:20:00,
2013-01-19 21:30:00,20.8,17.5,29.99,WNW,296,4.0,7.0,87,0.00,,,0.00,Wunderground v.1.15,2013-01-20 06:30:00,
2013-01-19 21:40:00,20.9,17.6,29.99,NNW,329,5.0,7.0,87,0.00,,,0.00,Wunderground v.1.15,2013-01-20 06:40:00,
2013-01-19 21:50:00,21.0,17.7,29.99,NW,317,4.0,4.0,87,0.00,,,0.00,Wunderground v.1.15,2013-01-20 06:50:00,
2013-01-19 22:00:00,21.1,17.8,29.99,NW,323,2.0,7.0,87,0.00,,,0.00,Wunderground v.1.15,2013-01-20 07:00:00,
2013-01-19 22:10:00,21.1,18.1,29.99,WNW,303,1.0,7.0,88,0.00,,,0.00,Wunderground v.1.15,2013-01-20 07:10:00,
2013-01-19 22:20:00,21.2,18.2,29.99,WNW,292,1.0,7.0,88,0.00,,,0.00,Wunderground v.1.15,2013-01-20 07:20:00,
2013-01-19 22:30:00,21.5,18.2,29.99,WNW,292,3.0,7.0,87,0.00,,,0.00,Wunderground v.1.15,2013-01-20 07:30:00,
2013-01-19 22:40:00,21.6,18.3,29.98,NW,323,2.0,7.0,87,0.00,,,0.00,Wunderground v.1.15,2013-01-20 07:40:00,
2013-01-19 22:50:00,21.7,18.4,29.99,WNW,288,3.0,7.0,87,0.00,,,0.00,Wunderground v.1.15,2013-01-20 07:50:00,
2013-01-19 23:00:00,21.9,18.6,29.99,WNW,293,5.0,7.0,87,0.00,,,0.00,Wunderground v.1.15,2013-01-20 08:00:00,
2013-01-19 23:10:00,22.0,18.7,29.99,NW,323,3.0,7.0,87,0.00,,,0.00,Wunderground v.1.15,2013-01-20 08:10:00,
2013-01-19 23:20:00,22.1,18.8,29.98,NNW,338,3.0,7.0,87,0.00,,,0.00,Wunderground v.1.15,2013-01-20 08:20:00,
2013-01-19 23:30:00,22.1,18.8,29.99,NW,325,2.0,7.0,87,0.00,,,0.00,Wunderground v.1.15,2013-01-20 08:30:00,
2013-01-19 23:40:00,22.0,18.7,29.99,NW,323,2.0,2.0,87,0.00,,,0.00,Wunderground v.1.15,2013-01-20 08:40:00,
2013-01-19 23:50:00,22.0,19.0,29.99,NW,323,0.0,7.0,88,0.00,,,0.00,Wunderground v.1.15,2013-01-20 08:50:00,